EW5518 Weather Reports


time (UTC)temp
C
wind
direction
speed
KPH
gust
KPH
rain 1hr
cm
rain 24hr
cm
rain mn
cm
humidity
%
barometer
mb
20260906114527 21 294 8.0 19.3 0.00 0.00 0.00 71 1008.3
20260906113026 21 287 11.3 19.3 0.00 0.00 0.00 67 1008.5
20260906111527 22 322 11.3 19.3 0.00 0.00 0.00 63 1008.4
20260906110023 22 298 4.8 14.5 0.00 0.00 0.00 56 1008.4
20260906104632 22 340 11.3 22.5 0.00 0.00 0.00 60 1008.5
20260906103019 22 301 11.3 19.3 0.00 0.00 0.00 61 1008.7
20260906101525 22 316 8.0 19.3 0.00 0.00 0.00 55 1008.7
20260906100014 22 205 6.4 17.7 0.00 0.00 0.00 52 1009.0
20260906094513 22 277 8.0 16.1 0.00 0.00 0.00 53 1009.1
20260906093020 22 279 8.0 14.5 0.00 0.00 0.00 53 1009.1
20260906091509 21 227 6.4 14.5 0.00 0.00 0.00 56 1009.2
20260906090022 21 301 8.0 16.1 0.00 0.00 0.00 55 1009.3
20260906084505 21 328 6.4 14.5 0.00 0.00 0.00 53 1009.4
20260906083004 21 23 3.2 12.9 0.00 0.00 0.00 54 1009.3
20260906081501 21 316 4.8 14.5 0.00 0.00 0.00 58 1009.4
20260906080125 21 295 3.2 14.5 0.00 0.00 0.00 58 1009.5
20260906074607 20 355 0.0 9.7 0.00 0.00 0.00 50 1009.4
20260906074520 20 355 1.6 9.7 0.00 0.00 0.00 50 1009.4
20260906073105 20 333 3.2 8.0 0.00 0.00 0.00 52 1009.4
20260906071549 20 25 3.2 6.4 0.00 0.00 0.00 54 1009.4
20260906070045 19 355 1.6 8.0 0.00 0.00 0.00 57 1009.5
20260906064541 19 30 3.2 9.7 0.00 0.00 0.00 57 1009.5
20260906063046 18 290 1.6 9.7 0.00 0.00 0.00 60 1009.4
20260906061533 18 250 1.6 11.3 0.00 0.00 0.00 60 1009.2
20260906060027 18 257 4.8 12.9 0.00 0.00 0.00 56 1009.2
20260906054523 20 315 8.0 12.9 0.00 0.00 0.00 45 1008.9
20260905184521 17 156 6.4 11.3 0.00 0.00 0.00 70 1009.3
20260905183019 18 142 4.8 12.9 0.00 0.00 0.00 64 1009.4
20260905181520 17 132 8.0 12.9 0.00 0.00 0.00 68 1009.4
20260905180014 17 136 8.0 12.9 0.00 0.00 0.00 72 1009.4
20260905174519 17 127 4.8 12.9 0.00 0.00 0.00 75 1009.5
20260905173010 17 136 3.2 6.4 0.00 0.00 0.00 81 1009.3
20260905171511 17 125 3.2 9.7 0.00 0.00 0.00 83 1009.2
20260905170002 17 104 1.6 4.8 0.00 0.00 0.00 85 1008.9
20260905164602 18 5 1.6 4.8 0.00 0.00 0.00 87 1008.7
20260905163058 18 331 0.0 0.0 0.00 0.00 0.00 88 1008.6
20260905161557 18 331 0.0 0.0 0.00 0.00 0.00 88 1008.7
20260905160107 18 331 0.0 0.0 0.00 0.00 0.00 89 1008.5
20260905154622 18 331 0.0 0.0 0.00 0.00 0.00 89 1008.6
20260905153053 18 331 0.0 1.6 0.00 0.00 0.00 89 1008.6
20260905151551 18 331 0.0 1.6 0.00 0.00 0.00 89 1008.6
20260905150053 18 331 1.6 4.8 0.00 0.00 0.00 89 1008.6
20260905144546 18 329 0.0 6.4 0.00 0.00 0.00 89 1008.6